Regional Weather Roundup
Issued by NWS

Home | Current Version | Previous Version | Text Only | Print | Product List | Glossary Off
Versions: 1 2 3 4 5 6 7 8 9 10 11 12 13 14 15 16 17 18 19 20 21 22 23 24 25 26 27 28 29 30 31 32 33 34 35 36 37 38 39 40 41 42 43 44 45 46 47 48 49 50

000
ASUS43 KOAX 230502
RWRNE

WEATHER ROUNDUP FOR NEBRASKA
NATIONAL WEATHER SERVICE OMAHA NE
1200 AM CDT WED AUG 23 2017

NOTES: SATELLITE DATA IS BEING USED TO AUGMENT CLOUD COVER ABOVE
       12000 FEET.
       "FAIR" INDICATES FEW OR NO CLOUDS BELOW 12,000 FEET WITH NO
       SIGNIFICANT WEATHER AND/OR OBSTRUCTIONS TO VISIBILITY.


NEZ001>004-019>022-054>056-230600-
NEBRASKA PANHANDLE

CITY           SKY/WX    TMP DP  RH WIND       PRES   REMARKS
SCOTTSBLUFF    CLEAR     65  53  65 E13       30.16S
ALLIANCE       CLEAR     62  50  64 S13       30.17F
CHADRON        CLEAR     72  48  42 S24G33    30.09F
GORDON         FAIR      65  49  57 S3        30.16S
KIMBALL        CLEAR     65  54  66 SE14      30.21S
SIDNEY         CLEAR     66  53  63 S15       30.21S
$$

NEZ057>060-069>072-079>082-230600-
SOUTHWEST NEBRASKA

CITY           SKY/WX    TMP DP  RH WIND       PRES   REMARKS
NORTH PLATTE   CLEAR     58  55  90 SE8       30.21R
IMPERIAL       CLEAR     59  51  75 SE8       30.21S
LEXINGTON      CLEAR     60  55  83 S5        30.22R
MCCOOK         CLEAR     63  55  75 SE8       30.21R
OGALLALA       CLEAR     65  53  66 SE5       30.20S
$$

NEZ005>010-023>029-035>040-094-230600-
NORTH CENTRAL NEBRASKA

CITY           SKY/WX    TMP DP  RH WIND       PRES   REMARKS
VALENTINE      CLEAR     65  49  56 S8        30.15S
AINSWORTH      CLEAR     60  53  77 S9        30.17S
BROKEN BOW     CLEAR     57  54  89 CALM      30.20S
O`NEILL        CLEAR     60  54  78 SE3       30.18S
ORD            CLEAR     59  54  83 CALM      30.18S
THEDFORD       CLEAR     65  52  63 S7        30.20S
$$

NEZ041-046>049-061>064-073>077-083>087-230600-
SOUTH CENTRAL NEBRASKA

CITY           SKY/WX    TMP DP  RH WIND       PRES   REMARKS
GRAND ISLAND   CLEAR     59  56  89 SE6       30.20R
AURORA         CLEAR     58  55  90 E6        30.19S
HASTINGS       CLEAR     62  54  74 S3        30.21S
HEBRON         CLEAR     57  54  89 CALM      30.19S
HOLDREGE       CLEAR     60  54  78 S3        30.22R
KEARNEY        CLEAR     62  55  77 S5        30.21S
$$

NEZ011>018-030>034-042>045-230600-
NORTHEAST NEBRASKA

CITY           SKY/WX    TMP DP  RH WIND       PRES   REMARKS
NORFOLK        CLEAR     57  54  89 CALM      30.18R
ALBION         CLEAR     57  57  98 CALM      30.19S
BLAIR          CLEAR     61  53  75 CALM      30.18R
COLUMBUS       CLEAR     56  54  93 CALM      30.19R
FREMONT        CLEAR     60  56  87 CALM      30.18R
TEKAMAH        CLEAR     56  54  93 CALM      30.16S
WAYNE          CLEAR     55  52  91 CALM      30.17S
$$

NEZ050>053-065>068-078-088>093-230600-
SOUTHEAST NEBRASKA

CITY           SKY/WX    TMP DP  RH WIND       PRES   REMARKS
LINCOLN        CLEAR     59  55  87 CALM      30.19R
OMAHA EPPLEY   CLEAR     61  55  81 NE3       30.17R
BEATRICE       CLEAR     58  55  89 CALM      30.19R
FALLS CITY     CLEAR     59  55  87 CALM      30.16S
NEBRASKA CITY  CLEAR     63  52  67 CALM      30.18R
PLATTSMOUTH    CLEAR     60  51  71 W3        30.18R
$$

NEZ044-045-051>053-067-230600-
OMAHA AREA

CITY           SKY/WX    TMP DP  RH WIND       PRES   REMARKS
OMAHA EPPLEY   CLEAR     61  55  81 NE3       30.17R
BLAIR          CLEAR     61  53  75 CALM      30.18R
FREMONT        CLEAR     60  56  87 CALM      30.18R
MILLARD        CLEAR     60  57  89 CALM      30.17R
OFFUTT AFB     CLEAR     55  53  93 CALM      30.16R
PLATTSMOUTH    CLEAR     60  51  71 W3        30.18R
WAHOO          FAIR      58  55  90 CALM      30.17S
$$




USA.gov is the U.S. government's official web portal to all federal, state and local government web resources and services.